Time,TemperatureF,DewpointF,PressureIn,WindDirection,WindDirectionDegrees,WindSpeedMPH,WindSpeedGustMPH,Humidity,HourlyPrecipIn,Conditions,Clouds,dailyrainin,SolarRadiationWatts/m^2,SoftwareType,DateUTC
2013-08-02 00:00:00,59.0,59.0,29.48,SSW,209,0.0,-999.0,100,-99.99,,,-99.99,0.000000,,2013-08-02 04:00:00,
2013-08-02 04:00:00,59.0,59.0,29.46,West,262,0.0,-999.0,100,-99.99,,,-99.99,0.000000,,2013-08-02 08:00:00,
2013-08-02 04:54:00,59.0,59.0,29.46,West,262,0.0,-999.0,100,-99.99,,,-99.99,0.000000,,2013-08-02 08:54:00,
2013-08-02 05:00:00,59.0,59.0,29.46,West,277,0.0,-999.0,100,-99.99,,,-99.99,0.000000,,2013-08-02 09:00:00,
2013-08-02 05:53:00,59.0,59.0,29.46,West,277,0.0,-999.0,100,-99.99,,,-99.99,0.000000,,2013-08-02 09:53:00,
2013-08-02 06:00:00,59.0,59.0,29.48,West,265,0.0,-999.0,100,-99.99,,,-99.99,0.200000,,2013-08-02 10:00:00,
2013-08-02 07:00:00,59.0,59.0,29.49,West,269,0.0,-999.0,100,-99.99,,,-99.99,13.700000,,2013-08-02 11:00:00,
2013-08-02 08:00:00,59.0,59.0,29.49,WSW,257,0.0,-999.0,100,-99.99,,,-99.99,38.459999,,2013-08-02 12:00:00,
2013-08-02 09:00:00,60.0,60.0,29.50,West,272,1.0,-999.0,98,-99.99,,,-99.99,74.470001,,2013-08-02 13:00:00,
2013-08-02 09:52:00,60.0,60.0,29.50,West,272,1.0,-999.0,98,-99.99,,,-99.99,74.470001,,2013-08-02 13:52:00,
2013-08-02 10:00:00,62.0,59.0,29.51,West,266,1.0,-999.0,89,-99.99,,,-99.99,143.679993,,2013-08-02 14:00:00,
2013-08-02 11:00:00,65.0,56.0,29.52,West,277,1.0,-999.0,73,-99.99,,,-99.99,153.750000,,2013-08-02 15:00:00,
2013-08-02 11:53:00,65.0,56.0,29.52,West,277,1.0,-999.0,73,-99.99,,,-99.99,153.750000,,2013-08-02 15:53:00,
2013-08-02 12:00:00,67.0,59.0,29.52,WNW,286,1.0,-999.0,75,-99.99,,,-99.99,556.059998,,2013-08-02 16:00:00,
2013-08-02 12:53:00,67.0,59.0,29.52,WNW,286,1.0,-999.0,75,-99.99,,,-99.99,556.059998,,2013-08-02 16:53:00,
2013-08-02 13:00:00,70.0,56.0,29.51,WNW,283,1.0,-999.0,60,-99.99,,,-99.99,769.690002,,2013-08-02 17:00:00,
2013-08-02 14:00:00,68.0,57.0,29.50,West,264,1.0,-999.0,68,-99.99,,,-99.99,449.160004,,2013-08-02 18:00:00,
2013-08-02 15:00:00,70.0,55.0,29.51,West,265,1.0,-999.0,59,-99.99,,,-99.99,664.359985,,2013-08-02 19:00:00,
2013-08-02 16:00:00,70.0,56.0,29.49,West,279,1.0,-999.0,61,-99.99,,,-99.99,688.380005,,2013-08-02 20:00:00,
2013-08-02 16:52:00,70.0,56.0,29.49,West,279,1.0,-999.0,61,-99.99,,,-99.99,688.380005,,2013-08-02 20:52:00,
2013-08-02 17:00:00,68.0,55.0,29.50,West,266,1.0,-999.0,62,-99.99,,,-99.99,488.429993,,2013-08-02 21:00:00,
2013-08-02 18:00:00,65.0,56.0,29.49,West,268,1.0,-999.0,73,-99.99,,,-99.99,115.320000,,2013-08-02 22:00:00,
2013-08-02 19:00:00,64.0,54.0,29.50,West,280,1.0,-999.0,69,-99.99,,,-99.99,44.130001,,2013-08-02 23:00:00,
2013-08-02 19:53:00,64.0,54.0,29.50,West,280,1.0,-999.0,69,-99.99,,,-99.99,44.130001,,2013-08-02 23:53:00,
2013-08-02 20:00:00,61.0,56.0,29.50,WNW,282,0.0,-999.0,83,-99.99,,,-99.99,8.400000,,2013-08-03 00:00:00,
2013-08-02 20:52:00,61.0,56.0,29.50,WNW,282,0.0,-999.0,83,-99.99,,,-99.99,8.400000,,2013-08-03 00:52:00,
2013-08-02 21:00:00,58.0,55.0,29.50,East,80,0.0,-999.0,90,-99.99,,,-99.99,0.240000,,2013-08-03 01:00:00,
2013-08-02 21:53:00,58.0,55.0,29.50,East,80,0.0,-999.0,90,-99.99,,,-99.99,0.240000,,2013-08-03 01:53:00,
2013-08-02 22:00:00,55.0,54.0,29.52,East,86,0.0,-999.0,97,-99.99,,,-99.99,0.000000,,2013-08-03 02:00:00,
2013-08-02 23:00:00,53.0,53.0,29.52,East,100,1.0,-999.0,99,-99.99,,,-99.99,0.000000,,2013-08-03 03:00:00,